Simultaneous Nadir Overpasses (SNOs) Predictions

Prediction of SNOs between LANDSAT-8 and METOP-B Satellite Orbit:

Table of predicted SNOs for the next 14.0 days since TLE Epoch: 5/2/2014
Index Date (LANDSAT-8) Time (LANDSAT-8) Lat,Lon (LANDSAT-8) SZA (LANDSAT-8 ) Date (METOP-B) Time (METOP-B) Lat,Lon (METOP-B) SZA (METOP-B ) Distance(km) Time Diff (sec)
1 05/04/2014 09:34:46 81.04, 74.27 67.08 05/04/2014 09:33:36 81.05, 74.40 67.07 2.40 70
2 05/04/2014 10:24:12 -81.07,-117.78 112.89 05/04/2014 10:24:16 -81.07,-117.76 112.88 0.53 4
3 05/07/2014 05:08:56 81.04, 140.63 66.28 05/07/2014 05:08:00 81.04, 140.55 66.25 1.31 56
4 05/07/2014 05:58:21 -81.09, -51.05 113.63 05/07/2014 05:58:38 -81.09, -50.88 113.60 3.11 17
5 05/10/2014 00:43:06 81.04,-152.86 65.54 05/10/2014 00:42:24 81.04,-152.96 65.51 1.66 42
6 05/10/2014 01:32:31 -81.09, 15.46 114.37 05/10/2014 01:33:02 -81.09, 15.61 114.34 2.53 31
7 05/12/2014 20:17:15 81.06, -86.20 64.85 05/12/2014 20:16:47 81.06, -86.13 64.85 1.28 28
8 05/12/2014 21:06:41 -81.08, 81.77 115.11 05/12/2014 21:07:27 -81.08, 81.68 115.10 1.49 46
9 05/15/2014 15:51:23 81.06, -19.74 64.18 05/15/2014 15:51:10 81.06, -19.70 64.18 0.80 13




NCC Satellite Simultaneous Nadir Overpasses (SNOs) Prediction Service
